Location: 81360 Arifat, France
(43.7204°N, 2.3408°E)
Time: 01:40:38
(UTC+01:00)

A-11 Canister half - Visible Passes

Search period start: 06 December 2025 00:00
Search period end: 16 December 2025 00:00
Orbit: 1526 x 1681 km, 47.3° (Epoch: 04 December)

Date Brightness Start Highest point End Pass type
(mag) Time Alt. Az. Time Alt. Az. Time Alt. Az.
06 Dec 9.5 19:18:56 10° WNW 19:28:38 58° SW 19:38:00 10° SE visible
06 Dec 10.9 21:26:03 10° W 21:32:01 18° SW 21:36:28 13° SSW visible
07 Dec 9.5 18:57:02 10° WNW 19:06:49 61° SW 19:16:16 10° SE visible
07 Dec 10.9 21:03:55 10° W 21:10:17 20° SW 21:16:32 10° SSW visible
08 Dec 9.5 18:35:09 10° WNW 18:45:00 63° SW 18:54:30 10° SE visible
08 Dec 10.9 20:41:50 10° W 20:48:33 21° SW 20:55:08 10° S visible
09 Dec 9.5 18:13:16 10° WNW 18:23:10 65° SSW 18:32:45 10° SE visible
09 Dec 10.9 20:19:46 10° W 20:26:47 22° SW 20:33:42 10° S visible
10 Dec 9.5 17:51:23 10° WNW 18:01:20 68° SSW 18:10:59 10° SE visible
10 Dec 10.9 19:57:44 10° W 20:05:03 24° SW 20:12:13 10° S visible
11 Dec 9.5 17:29:29 10° WNW 17:39:30 70° SSW 17:49:12 10° SE visible
11 Dec 10.9 19:35:42 10° WNW 19:43:17 26° SW 19:50:44 10° S visible
12 Dec 10.9 19:13:42 10° WNW 19:21:33 27° SW 19:29:12 10° S visible
13 Dec 10.9 18:51:42 10° WNW 18:59:47 29° SW 19:07:40 10° S visible
14 Dec 10.9 18:29:44 10° WNW 18:38:01 31° SW 18:46:06 10° S visible
15 Dec 10.9 18:07:46 10° WNW 18:16:14 32° SW 18:24:31 10° S visible
